GW6173 Weather Reports


Display with metric or nautical units.
time (UTC)temp
F
wind
direction
speed
MPH
gust
MPH
rain 1hr
in
rain 24hr
in
rain mn
in
humidity
%
barometer
mb
20260506184515 56 172 4.0 14.0 0.00 0.01 0.01 82 1021.0
20260506180015 54 228 4.0 7.0 0.00 0.01 0.01 89 1021.1
20260506174514 54 246 2.0 5.0 0.00 0.01 0.01 89 1021.2
20260506173016 54 213 4.0 10.0 0.00 0.01 0.01 88 1021.1
20260506170021 54 190 7.0 11.0 0.00 0.01 0.01 89 1020.9
20260506164518 54 174 6.0 10.0 0.00 0.01 0.01 90 1020.7
20260506163030 54 179 4.0 10.0 0.00 0.01 0.01 92 1020.7
20260506160020 53 167 7.0 11.0 0.00 0.01 0.01 94 1020.5
20260506154518 53 155 3.0 9.0 0.00 0.01 0.01 95 1020.3
20260506153016 52 105 0.0 2.0 0.00 0.01 0.01 96 1020.4
20260506151516 52 105 0.0 0.0 0.00 0.01 0.01 96 1020.4
20260506150016 52 105 0.0 1.0 0.00 0.01 0.01 96 1020.5
20260506144517 52 105 3.0 7.0 0.00 0.01 0.01 96 1019.7
20260506143018 51 321 2.0 4.0 0.01 0.01 0.01 96 1019.9
20260506141518 51 321 0.0 0.0 0.01 0.01 0.01 95 1020.2
20260506140017 51 321 0.0 3.0 0.01 0.01 0.01 95 1020.4
20260506134515 51 321 0.0 3.0 0.01 0.01 0.01 95 1020.1
20260506133012 51 321 2.0 5.0 0.00 0.00 0.00 95 1020.1
20260506131515 51 321 1.0 3.0 0.00 0.00 0.00 95 1019.6
20260506130015 52 321 0.0 2.0 0.00 0.00 0.00 95 1019.6
20260506124517 52 321 0.0 0.0 0.00 0.00 0.00 94 1019.4
20260506123017 52 321 0.0 0.0 0.00 0.00 0.00 94 1019.3
20260506121515 52 321 0.0 0.0 0.00 0.00 0.00 94 1019.2
20260506120018 52 321 0.0 0.0 0.00 0.00 0.00 93 1019.3
20260506111517 52 321 0.0 4.0 0.00 0.00 0.00 91 1019.1
20260506110016 53 321 0.0 4.0 0.00 0.00 0.00 90 1019.1
20260506104515 53 321 2.0 4.0 0.00 0.00 0.00 89 1018.9
20260506103020 53 321 3.0 4.0 0.00 0.00 0.00 88 1018.7
20260506101519 54 321 0.0 2.0 0.00 0.00 0.00 88 1018.6
20260506100018 54 321 0.0 3.0 0.00 0.00 0.00 88 1018.4
20260506091516 54 321 0.0 3.0 0.00 0.00 0.00 88 1018.3
20260506084517 54 321 0.0 3.0 0.00 0.00 0.00 88 1018.3
20260506073018 54 321 1.0 3.0 0.00 0.00 0.00 87 1017.6
20260506071519 54 321 1.0 3.0 0.00 0.00 0.00 86 1017.6
20260506061521 55 321 0.0 4.0 0.00 0.00 0.00 85 1017.2
20260506044520 56 308 3.0 9.0 0.00 0.00 0.00 85 1016.9
20260506043015 56 315 4.0 9.0 0.00 0.00 0.00 85 1016.7
20260506041517 57 305 5.0 10.0 0.00 0.00 0.00 84 1016.5
20260506040037 57 322 7.0 13.0 0.00 0.00 0.00 83 1016.3
20260506034528 58 321 8.0 14.0 0.00 0.00 0.00 81 1016.1
20260506033010 60 309 8.0 12.0 0.00 0.00 0.00 79 1016.0
20260506031529 61 304 7.0 11.0 0.00 0.00 0.00 79 1015.8
20260506024520 63 317 4.0 10.0 0.00 0.00 0.00 76 1015.3
20260506023012 64 342 3.0 5.0 0.00 0.00 0.00 74 1015.2
20260506021514 64 329 2.0 8.0 0.00 0.00 0.00 74 1015.2
20260506014515 65 16 1.0 5.0 0.00 0.00 0.00 72 1015.2
20260506013014 65 59 0.0 1.0 0.00 0.00 0.00 72 1015.2
20260506011513 65 59 1.0 3.0 0.00 0.00 0.00 73 1015.3
20260506010015 65 59 3.0 6.0 0.00 0.00 0.00 73 1015.2
20260506004522 65 269 0.0 7.0 0.00 0.00 0.00 72 1015.3
20260506003016 64 60 0.0 3.0 0.00 0.00 0.00 76 1015.5
20260506001515 63 50 2.0 6.0 0.00 0.00 0.00 76 1015.6
20260506000014 63 15 5.0 8.0 0.00 0.00 0.00 75 1015.8
20260505234513 62 10 4.0 9.0 0.00 0.00 0.00 76 1016.0
20260505231524 61 336 4.0 9.0 0.00 0.00 0.00 77 1016.2
20260505230022 61 224 0.0 5.0 0.00 0.00 0.00 81 1016.2
20260505224512 61 271 1.0 5.0 0.00 0.00 0.00 77 1016.4
20260505221516 60 223 0.0 3.0 0.00 0.00 0.00 80 1016.7
20260505220015 60 224 2.0 7.0 0.00 0.00 0.00 80 1016.7
20260505214513 60 252 0.0 7.0 0.00 0.00 0.00 80 1016.7
20260505211512 59 216 3.0 9.0 0.00 0.00 0.00 82 1016.8
20260505210020 59 261 4.0 9.0 0.00 0.00 0.00 80 1016.9
20260505204512 59 257 2.0 8.0 0.00 0.00 0.00 82 1017.0
20260505203011 59 274 3.0 8.0 0.00 0.00 0.00 83 1016.9
20260505201511 58 246 4.0 9.0 0.00 0.00 0.00 83 1016.9
20260505200033 58 244 3.0 8.0 0.00 0.00 0.00 83 1017.0
20260505194514 58 259 6.0 10.0 0.00 0.00 0.00 83 1017.0
20260505193013 57 236 5.0 10.0 0.00 0.00 0.00 83 1017.0
20260505191513 57 250 5.0 10.0 0.00 0.00 0.00 85 1017.0
20260505190013 57 259 6.0 10.0 0.00 0.00 0.00 85 1017.0